This demonstration page uses our WeatherBlox Daily Observations layout. Learn more.

Left ArrowRight Arrow

Hourly Observations for October 16, 2021

Temp ( °F °C ) Dew Point ( °F °C ) Humidity (%) Winds ( mph kmh ) Pressure ( in mb ) Visibility ( mi km ) Precip ( " mm )
12:02 am 00:02 Cloudy with Heavy Rain 63 17.2 61 16.1 93 93 NNW 7 11 29.80 1009 3 5 0.04 1.02
12:53 am 00:53 Cloudy with Light Rain 62 16.7 60 15.6 93 93 NW 9 15 29.81 1010 9 14 0.10 2.54
1:34 am 01:34 Cloudy with Rain 61 16.1 59 15 93 93 NNW 8 13 29.80 1009 8 13 0.08 2.03
1:53 am 01:53 Cloudy with Light Rain 61 16.1 59 15 93 93 NNW 7 11 29.80 1009 9 14 0.10 2.54
2:40 am 02:40 Cloudy with Light Rain 59 15 56 13.3 90 90 NW 10 17 29.81 1009 10 16 0.02 0.51
2:53 am 02:53 Cloudy with Light Rain 59 15 56 13.3 90 90 NW 9 15 29.82 1010 10 16 0.03 0.76
3:13 am 03:13 Cloudy 57 13.9 54 12.2 90 90 NW 12 19 29.85 1011 10 16 0.00 0.00
3:21 am 03:21 Cloudy with Light Rain 57 13.9 54 12.2 90 90 NW 14 22 29.85 1011 10 16 0.00 0.00
3:48 am 03:48 Cloudy 55 13 54 12 94 94 NW 13 20 29.84 1011 10 16 0.00 0.00
3:53 am 03:53 Cloudy with Light Rain 56 13.3 53 11.7 90 90 NW 10 17 29.83 1010 10 16 0.00 0.00
4:06 am 04:06 Cloudy 56 13.3 54 12.2 93 93 NW 8 13 29.85 1011 10 16 0.00 0.00
4:21 am 04:21 Cloudy 56 13.3 52 11.1 87 87 NNW 12 19 29.84 1011 10 16 0.00 0.00
4:53 am 04:53 Cloudy 55 12.8 51 10.6 87 87 W 8 13 29.87 1011 10 16 0.00 0.00
5:53 am 05:53 Cloudy 55 12.8 51 10.6 87 87 WNW 9 15 29.88 1012 10 16 N/A
6:43 am 06:43 Cloudy 54 12.2 48 8.9 80 80 WNW 14 22 29.91 1013 10 16 0.00 0.00
6:53 am 06:53 Cloudy 54 12.2 48 8.9 80 80 WNW 13 20 29.91 1013 10 16 0.00 0.00
7:53 am 07:53 Cloudy 53 11.7 47 8.3 80 80 WNW 8 13 29.94 1014 10 16 N/A
8:53 am 08:53 Sunny 53 11.7 47 8.3 80 80 W 6 9 29.98 1015 10 16 N/A
9:53 am 09:53 Sunny 54 12.2 46 7.8 75 75 WNW 15 24 30.00 1016 10 16 N/A
10:53 am 10:53 Sunny 56 13.3 46 7.8 70 70 WNW 12 19 30.01 1016 10 16 N/A
11:53 am 11:53 Partly Cloudy 57 13.9 44 6.7 62 62 W 13 20 30.03 1017 10 16 N/A
12:53 pm 12:53 Mostly Sunny 60 15.6 42 5.6 52 52 W 10 17 30.04 1017 10 16 N/A
1:53 pm 13:53 Sunny 58 14.4 38 3.3 48 48 WNW 15 24 30.04 1017 10 16 N/A
2:53 pm 14:53 Sunny 61 16.1 36 2.2 39 39 WNW 14 22 30.03 1017 10 16 N/A
3:53 pm 15:53 Partly Cloudy 60 15.6 37 2.8 42 42 NW 15 24 30.04 1017 10 16 N/A
4:53 pm 16:53 Partly Cloudy 60 15.6 36 2.2 41 41 WNW 13 20 30.05 1018 10 16 N/A
5:53 pm 17:53 Partly Cloudy 59 15 36 2.2 42 42 WNW 12 19 30.06 1018 10 16 N/A
6:53 pm 18:53 Mostly Sunny 54 12.2 39 3.9 57 57 W 3 6 30.07 1018 10 16 N/A
7:53 pm 19:53 Cloudy 54 12.2 38 3.3 55 55 W 5 7 30.09 1019 10 16 N/A
8:53 pm 20:53 Mostly Clear 49 9.4 41 5 74 74 WNW 3 6 30.10 1019 10 16 N/A
9:53 pm 21:53 Clear 47 8.3 40 4.4 77 77 N N/A 30.13 1020 10 16 N/A
10:53 pm 22:53 Clear 44 6.7 41 5 89 89 N N/A 30.15 1021 10 16 N/A
11:53 pm 23:53 Clear 43 6.1 41 5 93 93 W 3 6 30.15 1021 10 16 N/A

Powered by AerisWeather